TimeCDT,TemperatureF,Dew PointF,Humidity,Sea Level PressureIn,VisibilityMPH,Wind Direction,Wind SpeedMPH,Gust SpeedMPH,PrecipitationIn,Events,Conditions,WindDirDegrees,DateUTC
12:27 AM,71.6,69.8,94,29.67,3.0,East,5.8,-,0.05,Rain,Heavy Rain,100,2012-10-01 05:27:00
12:36 AM,71.6,69.8,94,29.67,7.0,SE,6.9,-,0.07,Rain,Light Rain,130,2012-10-01 05:36:00
12:53 AM,72.0,70.0,93,29.66,10.0,ESE,8.1,-,0.07,,Overcast,110,2012-10-01 05:53:00
1:53 AM,73.0,71.1,93,29.64,4.0,SE,8.1,-,0.11,Rain,Rain,130,2012-10-01 06:53:00
2:19 AM,73.4,71.6,94,29.64,3.0,ESE,8.1,-,N/A,Rain,Heavy Rain,120,2012-10-01 07:19:00
2:24 AM,73.4,71.6,94,29.63,1.8,ESE,9.2,-,0.19,Rain,Heavy Rain,120,2012-10-01 07:24:00
2:34 AM,73.4,71.6,94,29.61,1.0,East,5.8,-,0.45,Rain,Heavy Rain,100,2012-10-01 07:34:00
2:53 AM,73.0,71.1,93,29.60,1.8,ENE,3.5,-,0.80,Rain,Heavy Rain,60,2012-10-01 07:53:00
2:59 AM,73.4,71.6,94,29.60,2.0,Calm,Calm,-,0.03,Rain,Heavy Rain,0,2012-10-01 07:59:00
3:07 AM,73.4,71.6,94,29.60,5.0,SSE,8.1,-,0.06,Rain,Light Rain,160,2012-10-01 08:07:00
3:37 AM,75.2,71.6,89,29.58,10.0,ESE,12.7,-,0.07,Rain,Light Rain,120,2012-10-01 08:37:00
3:53 AM,75.0,72.0,90,29.58,10.0,SSE,10.4,17.3,0.07,Rain,Light Rain,150,2012-10-01 08:53:00
4:17 AM,75.2,71.6,89,29.57,9.0,SE,9.2,18.4,0.01,Rain,Light Rain,140,2012-10-01 09:17:00
4:53 AM,75.9,72.0,87,29.57,10.0,SE,10.4,-,0.02,Rain,Light Rain,140,2012-10-01 09:53:00
5:53 AM,75.0,71.1,87,29.59,5.0,South,9.2,21.9,0.03,Rain,Rain,170,2012-10-01 10:53:00
6:19 AM,73.4,71.6,94,29.60,1.8,South,5.8,-,0.09,Rain,Heavy Rain,190,2012-10-01 11:19:00
6:25 AM,73.4,71.6,94,29.59,1.0,South,4.6,-,0.26,Rain,Heavy Rain,170,2012-10-01 11:25:00
6:37 AM,73.4,71.6,94,29.58,2.0,SSE,10.4,-,0.48,Rain,Light Rain,160,2012-10-01 11:37:00
6:44 AM,73.4,69.8,88,29.59,10.0,South,6.9,-,0.48,,Overcast,180,2012-10-01 11:44:00
6:53 AM,73.9,71.1,91,29.58,10.0,SSE,5.8,-,0.48,,Overcast,160,2012-10-01 11:53:00
7:46 AM,75.2,71.6,89,29.60,10.0,SSE,6.9,-,N/A,,Mostly Cloudy,150,2012-10-01 12:46:00
7:53 AM,75.0,71.1,87,29.60,10.0,SE,5.8,-,N/A,,Scattered Clouds,140,2012-10-01 12:53:00
8:53 AM,75.9,72.0,87,29.61,10.0,South,9.2,-,0.00,,Overcast,170,2012-10-01 13:53:00
9:53 AM,79.0,72.0,79,29.61,10.0,SSE,11.5,17.3,N/A,,Mostly Cloudy,160,2012-10-01 14:53:00
10:53 AM,80.1,72.0,76,29.60,10.0,South,8.1,-,0.00,,Overcast,170,2012-10-01 15:53:00
11:49 AM,84.2,71.6,66,29.60,10.0,South,11.5,19.6,N/A,,Mostly Cloudy,170,2012-10-01 16:49:00
11:53 AM,82.9,71.1,67,29.59,10.0,South,13.8,20.7,N/A,,Mostly Cloudy,180,2012-10-01 16:53:00
12:53 PM,84.9,71.1,63,29.57,10.0,SSE,13.8,20.7,N/A,,Scattered Clouds,160,2012-10-01 17:53:00
1:53 PM,86.0,71.1,61,29.55,10.0,South,11.5,-,N/A,,Mostly Cloudy,180,2012-10-01 18:53:00
2:53 PM,84.9,69.1,59,29.55,10.0,SSW,11.5,19.6,N/A,,Scattered Clouds,200,2012-10-01 19:53:00
3:53 PM,84.0,66.9,56,29.56,10.0,SSW,13.8,21.9,N/A,,Mostly Cloudy,200,2012-10-01 20:53:00
4:53 PM,82.4,66.2,58,29.57,10.0,SW,9.2,-,N/A,,Scattered Clouds,220,2012-10-01 21:53:00
5:53 PM,80.1,66.0,62,29.58,10.0,SSW,10.4,16.1,N/A,,Overcast,210,2012-10-01 22:53:00
6:53 PM,75.9,64.9,69,29.59,10.0,South,4.6,-,N/A,,Partly Cloudy,190,2012-10-01 23:53:00
7:53 PM,75.0,64.9,71,29.62,10.0,SSW,4.6,-,N/A,,Mostly Cloudy,200,2012-10-02 00:53:00
8:53 PM,73.9,64.9,73,29.65,10.0,SW,6.9,-,N/A,,Overcast,230,2012-10-02 01:53:00
9:53 PM,71.6,64.4,78,29.68,10.0,West,5.8,-,N/A,,Overcast,260,2012-10-02 02:53:00
10:53 PM,69.1,64.0,84,29.68,10.0,WSW,3.5,-,N/A,,Mostly Cloudy,240,2012-10-02 03:53:00
11:07 PM,69.8,62.6,78,29.69,10.0,SW,3.5,-,N/A,,Mostly Cloudy,230,2012-10-02 04:07:00
11:14 PM,69.8,62.6,78,29.69,10.0,Calm,Calm,-,N/A,,Overcast,0,2012-10-02 04:14:00
11:27 PM,69.8,62.6,78,29.69,10.0,SSW,5.8,-,N/A,,Overcast,210,2012-10-02 04:27:00
11:53 PM,69.1,63.0,81,29.68,10.0,WSW,5.8,-,N/A,,Overcast,240,2012-10-02 04:53:00